Powrót do katalogu

CZ-3B R/B

AktywnyHEO
NORAD 39459·ROCKET BODY·🇨🇳 China

Wystrzelony Dec 1, 2013 z Xichang Satellite Launch Center

Loading…

Następne Przeloty (najbliższe 24 godziny)

TLE

ŚwieżeSource: Space-Track

Epoka: Sep 10, 2026, 03:47 UTC

1 39459U 13070B   26253.15808511 -.00031905  00000-0  00000-0 0  9997
2 39459  69.7637   2.0173 8376744 140.8446   4.1132  0.05566925 37288

Śledź CZ-3B R/B w czasie rzeczywistym z AllMySat

Download on the App Store